Content
SEND FEEDBACK

Daily
Averages
Monthly
Summary
United States of America

ANNETTE, ALASKA


Home > North America > United States > Alaska
Elevation: 108 feet     Latitude: 55 03N     Longitude: 131 34W

WEATHER
 
SELECT A DAY
Number of Records: 232,719;   Date Range: 1/1/95 - 9/29/14
 
SHARE

PRINT THIS DATA

[ ← Previous Day ]
WEATHER ALMANAC - JANUARY 31, 2013
[ Next Day → ]
[ °C ]   °F
Weather ElementAverageHighLow
Temperature43.9 °F45 °F (1:53 am)42.8 °F (4:18 pm)
Dewpoint42.3 °F44.1 °F (1:53 am)39.2 °F (6:04 pm)
Humidity94.1 %100 % (9:36 pm)87 % (6:04 pm)
Barometer30.06 in30.20 in (11:53 pm)29.88 in (12:12 am)
Wind Speed6.8 mph16.1 mph (12:26 am)
Wind Gust25.3 mph (12:26 am)
Weather ElementAverage
Visibility7.8 mi
Wind DirectionSE (130.3 °)

Weather ElementTotal
Precipitation0.87 in
Heating Degree Days21.1 (Base 65)
Averaged from 58 records on January 31, 2013
WEATHER CONDITIONS BREAKOUT
WIND DIRECTION BREAKOUT
WEATHER BY HOUR - JANUARY 31, 2013
[ °C ]   °F
Local TimeTemperatureDewpointHumidityBarometerVisibilityWind DirectionWind SpeedGust SpeedPrecipitationEventsConditions
12:12 AM44.6 °F42.8 °F93 %29.88 in3.0 miESE (120°)13.8 mph23.0 mph0.04 inRainRain
12:26 AM44.6 °F42.8 °F93 %29.89 in3.0 miSE (130°)16.1 mph25.3 mph0.09 inRainRain
12:36 AM44.6 °F42.8 °F93 %29.89 in2.0 miESE (120°)16.1 mph0.10 inRainLight Rain
12:53 AM44.1 °F42.1 °F93 %29.89 in2.0 miESE (120°)13.8 mph20.7 mph0.14 inRainRain
1:18 AM44.6 °F42.8 °F93 %29.89 in1.8 miESE (120°)11.5 mph0.08 inRainRain
1:20 AM44.6 °F42.8 °F93 %29.89 in2.0 miSE (130°)15.0 mph0.08 inRainRain
1:35 AM44.6 °F42.8 °F93 %29.90 in5.0 miSE (140°)11.5 mph18.4 mph0.11 inRainLight Rain
1:53 AM45.0 °F44.1 °F97 %29.91 in4.0 miSE (140°)10.4 mph0.14 inRainLight Rain
3:53 AM44.1 °F43.0 °F96 %29.92 in10.0 miSSE (160°)4.6 mph0.01 inOvercast
4:53 AM44.1 °F43.0 °F96 %29.92 in10.0 miSE (130°)11.5 mphOvercast
5:53 AM44.1 °F43.0 °F96 %29.94 in10.0 miSE (130°)11.5 mph16.1 mph0.00 inRainLight Rain
6:42 AM44.6 °F42.8 °F93 %29.94 in10.0 miESE (120°)8.1 mph0.00 inOvercast
6:53 AM44.1 °F43.0 °F96 %29.95 in10.0 miSE (130°)8.1 mph0.00 inOvercast
7:23 AM44.6 °F42.8 °F93 %29.95 in10.0 miSE (140°)9.2 mphOvercast
7:53 AM45.0 °F43.0 °F93 %29.97 in10.0 miSE (140°)8.1 mphOvercast
8:02 AM44.6 °F42.8 °F93 %29.96 in10.0 miSE (140°)9.2 mphOvercast
8:53 AM45.0 °F43.0 °F93 %29.99 in10.0 miSSE (150°)9.2 mphOvercast
9:14 AM44.6 °F42.8 °F93 %29.98 in2.5 miSSE (150°)10.4 mph0.00 inRainLight Rain
9:21 AM44.6 °F42.8 °F93 %29.98 in5.0 miSSE (150°)9.2 mph0.01 inRainLight Rain
9:53 AM44.1 °F43.0 °F96 %30.00 in4.0 miSSE (150°)6.9 mph0.01 inRainLight Rain
10:13 AM44.6 °F42.8 °F93 %30.01 in1.8 miSSE (160°)8.1 mph0.00 inRainLight Rain
10:31 AM44.6 °F42.8 °F93 %30.01 in3.0 miSouth (180°)6.9 mph0.01 inOvercast
10:53 AM45.0 °F43.0 °F93 %30.02 in5.0 miSouth (170°)6.9 mph0.02 inOvercast
11:39 AM44.6 °F42.8 °F93 %30.03 in6.0 miSouth (170°)6.9 mph0.00 inRainLight Rain
11:50 AM44.6 °F42.8 °F93 %30.04 in10.0 miSouth (180°)5.8 mph0.01 inRainLight Rain
11:53 AM44.1 °F42.1 °F93 %30.04 in10.0 miSouth (190°)5.8 mph0.01 inOvercast
12:03 PM44.6 °F42.8 °F93 %30.04 in10.0 miSouth (190°)5.8 mph0.00 inRainLight Rain
12:46 PM44.6 °F42.8 °F93 %30.05 in9.0 miSSW (200°)8.1 mph0.00 inRainLight Rain
12:53 PM44.1 °F43.0 °F96 %30.06 in8.0 miSouth (190°)5.8 mph0.00 inRainLight Rain
1:18 PM44.6 °F42.8 °F93 %30.06 in10.0 miSouth (190°)9.2 mph0.00 inOvercast
1:53 PM44.1 °F42.1 °F93 %30.08 in10.0 miVariable3.5 mph0.01 inOvercast
2:53 PM44.1 °F42.1 °F93 %30.09 in10.0 miSouth (170°)4.6 mphOvercast
3:53 PM43.0 °F41.0 °F93 %30.11 in10.0 miSouth (180°)3.5 mphOvercast
4:18 PM42.8 °F41.0 °F93 %30.09 in10.0 miESE (110°)3.5 mphOvercast
4:53 PM43.0 °F41.0 °F93 %30.11 in10.0 miVariable3.5 mphOvercast
5:53 PM43.0 °F39.9 °F89 %30.13 in10.0 miSouth (180°)3.5 mphOvercast
6:04 PM42.8 °F39.2 °F87 %30.13 in10.0 miCalmOvercast
6:53 PM43.0 °F41.0 °F93 %30.14 in10.0 miCalmOvercast
7:12 PM42.8 °F41.0 °F93 %30.14 in10.0 miCalmOvercast
7:40 PM42.8 °F41.0 °F93 %30.14 in10.0 miSE (130°)3.5 mphOvercast
7:51 PM42.8 °F41.0 °F93 %30.15 in10.0 miSE (140°)4.6 mphOvercast
7:53 PM43.0 °F41.0 °F93 %30.16 in10.0 miSSE (160°)4.6 mphOvercast
8:13 PM42.8 °F41.0 °F93 %30.15 in10.0 miCalmOvercast
8:34 PM42.8 °F41.0 °F93 %30.15 in10.0 miSSE (150°)3.5 mphOvercast
8:53 PM43.0 °F41.0 °F93 %30.16 in10.0 miSE (130°)3.5 mphOvercast
9:36 PM42.8 °F42.8 °F100 %30.16 in10.0 miCalmOvercast
9:51 PM42.8 °F42.8 °F100 %30.17 in10.0 miSSE (160°)3.5 mphOvercast
9:53 PM43.0 °F42.1 °F97 %30.17 in10.0 miSSE (160°)3.5 mphOvercast
10:10 PM42.8 °F42.8 °F100 %30.16 in2.5 miSSE (150°)3.5 mphOvercast
10:19 PM42.8 °F42.8 °F100 %30.17 in1.2 miSE (140°)3.5 mphOvercast
10:44 PM42.8 °F42.8 °F100 %30.17 in3.0 miESE (120°)6.9 mphOvercast
10:53 PM43.0 °F42.1 °F97 %30.17 in10.0 miSE (130°)6.9 mphOvercast
11:01 PM42.8 °F42.8 °F100 %30.17 in10.0 miSE (140°)6.9 mphOvercast
11:16 PM44.6 °F42.8 °F93 %30.18 in10.0 miSE (140°)6.9 mphOvercast
11:31 PM44.6 °F42.8 °F93 %30.19 in10.0 miSE (130°)6.9 mphOvercast
11:39 PM44.6 °F42.8 °F93 %30.19 in10.0 miSE (130°)6.9 mphOvercast
11:48 PM44.6 °F42.8 °F93 %30.19 in10.0 miSE (130°)9.2 mph17.3 mphOvercast
11:53 PM44.1 °F42.1 °F93 %30.20 in10.0 miSSE (150°)6.9 mph17.3 mphOvercast
Hourly data recorded from PANT, located miles away from Annette, Alaska







STORIES FROM OUR PARTNERS